Wind_Speed
1 1 2 2 1 1 1 1 1 2 3 3 4 4 4 4 4 4 6 5 5 5 5 4 4 4 4 3 3 3 3 3 3 3 4 4 4 4 4 4 4 4 3
1 1 1 0 1 2 2 2 2 2 3 3 3 3 3 4 4 4 5 5 5 5 5 5 4 4 3 3 3 3 3 4 4 4 5 5 5 5 5 5 4 5 5
1 2 2 2 2 2 2 3 2 2 2 2 2 2 2 3 4 4 5 5 5 5 5 4 4 4 4 4 4 4 4 4 5 5 5 5 5 5 6 5 5 6 6
2 2 3 2 2 3 3 3 2 2 1 2 2 3 2 3 4 4 5 5 5 4 4 4 4 4 5 4 4 5 5 5 5 5 5 5 5 5 6 6 6 6 6
2 2 2 3 3 3 3 3 2 1 1 1 2 3 4 3 4 4 4 4 4 4 4 5 5 4 5 5 4 5 5 6 6 5 4 4 5 5 5 5 6 7 7
3 3 3 3 3 4 4 3 2 1 1 0 1 4 4 4 4 3 3 3 3 4 5 5 4 4 5 5 5 5 5 5 5 5 5 5 5 4 4 5 6 7 7
4 4 4 4 4 4 4 3 3 1 1 0 1 3 4 4 3 3 3 2 2 2 3 3 3 3 4 5 5 5 6 5 5 5 6 6 5 4 5 5 6 7 8
5 5 4 4 4 4 4 4 4 2 1 1 1 3 3 3 3 3 2 1 0 1 2 2 3 3 4 4 5 5 5 5 5 5 6 6 5 5 6 6 7 9 9
5 5 5 4 4 3 3 5 3 3 2 1 2 2 3 3 3 3 2 1 0 1 1 2 3 3 4 4 5 6 5 4 5 5 5 5 5 5 6 7 8 8 8
6 6 6 5 5 5 4 5 4 3 3 3 2 2 3 3 3 2 2 2 2 1 1 2 2 3 3 4 4 4 4 4 4 5 5 5 5 6 6 8 8 8 9
7 7 7 6 6 6 5 5 5 4 4 3 2 2 2 2 2 1 1 1 1 1 1 2 2 3 4 3 4 3 3 4 4 4 4 5 5 6 6 7 8 8 8
7 7 7 7 7 7 6 5 5 4 4 3 2 2 2 2 2 1 1 0 1 1 1 2 2 3 3 4 3 3 3 4 4 4 5 5 5 5 5 7 7 8 8
7 7 8 8 8 7 7 5 3 3 4 4 3 2 1 2 2 2 1 1 2 2 2 3 3 3 3 3 3 2 3 4 5 5 5 5 5 5 5 6 7 7 8
8 8 8 9 9 8 7 5 4 4 4 3 4 3 2 2 2 2 1 1 2 2 2 2 3 4 3 4 3 3 4 4 5 5 6 6 5 5 5 6 7 8 8
8 8 9 9 9 9 7 6 5 4 3 3 4 3 2 2 1 2 1 1 2 2 2 3 3 3 4 4 4 4 5 5 6 6 6 7 6 6 6 6 7 8 9
8 9 9 9 9 9 8 6 5 4 4 4 4 3 3 3 2 2 2 2 2 2 3 3 4 4 4 4 4 5 6 6 6 5 6 7 7 6 6 7 7 8 9
8 8 9 8 9 9 8 8 6 5 5 4 3 3 3 2 2 3 3 3 3 3 3 4 4 4 4 4 5 6 6 6 7 6 6 7 7 7 7 8 8 9 9
8 8 8 8 8 9 9 9 7 6 6 4 3 3 2 2 3 3 3 3 4 4 4 4 4 4 4 5 5 6 7 7 8 7 7 8 8 8 9 9 9 10 10
8 8 8 8 8 9 9 9 8 6 6 5 4 3 3 2 3 3 4 4 4 4 4 4 4 4 5 6 6 7 8 8 8 8 8 9 8 8 9 9 9 9 10
8 8 8 8 8 8 9 9 8 7 6 5 5 4 4 3 4 4 4 4 4 4 5 5 4 5 6 7 8 8 9 9 8 8 9 9 9 9 9 9 9 10 10
8 8 8 8 7 7 8 8 8 7 6 6 5 5 4 4 4 4 4 4 4 5 5 5 6 7 7 8 8 9 10 9 9 8 9 10 10 10 10 9 10 10 10
8 8 8 8 7 8 8 8 8 8 7 6 5 5 5 5 4 4 5 5 6 6 6 6 7 8 8 8 9 9 9 9 9 9 10 10 10 10 10 11 11 11 11
8 8 8 7 8 8 8 8 8 8 7 7 6 6 6 5 5 5 5 6 6 6 7 8 8 9 9 10 10 11 11 10 9 10 10 11 11 11 11 11 12 12 12
9 9 8 7 8 8 8 8 8 8 8 8 8 7 7 6 6 6 6 6 7 8 8 9 10 10 11 11 11 11 12 12 11 10 10 11 11 11 11 12 12 12 12
10 9 8 8 8 8 8 8 8 9 8 8 8 8 8 7 7 7 7 8 8 9 9 10 11 12 12 12 12 12 13 14 12 12 11 10 10 11 11 12 12 12 12
10 10 10 9 9 9 9 9 9 9 9 9 9 9 8 8 8 8 8 8 9 9 10 11 11 12 12 13 13 13 14 14 12 12 12 11 10 10 11 12 11 11 12
Wind_Direction
74 81 111 99 54 16 312 304 253 240 243 237 235 234 225 211 211 205 192 194 191 194 197 199 200 201 204 209 219 229 223 226 240 260 267 271 277 288 290 297 306 301 293
60 55 66 38 323 308 290 303 297 275 255 243 237 222 208 200 196 194 187 191 191 191 199 200 200 203 207 211 220 230 236 239 259 263 272 275 274 286 290 295 287 297 292
38 29 26 8 325 310 287 300 306 300 266 242 225 207 194 193 192 193 195 202 202 201 205 209 207 208 221 225 234 243 253 266 271 270 272 267 276 287 294 293 290 291 291
32 34 13 4 348 328 310 309 313 310 293 232 201 190 176 184 192 193 198 209 212 214 215 216 219 226 233 237 243 252 261 273 286 288 280 281 288 290 294 294 296 292 288
27 25 15 1 355 344 327 322 328 311 302 251 190 186 178 184 188 195 199 211 217 217 215 222 226 232 240 249 250 261 273 277 289 291 295 306 299 298 303 303 295 292 291
29 19 9 3 359 351 346 345 340 328 296 252 159 180 174 181 198 201 198 208 220 212 222 226 234 243 249 255 259 261 269 281 289 291 296 302 303 300 307 306 300 300 295
24 17 9 7 2 1 4 358 346 334 292 241 171 172 179 177 185 197 195 206 219 214 232 224 240 257 260 259 262 268 277 285 291 296 296 297 302 306 303 299 299 303 298
17 19 16 12 11 14 13 1 7 40 53 61 170 177 177 180 187 180 178 159 180 233 264 253 236 250 262 266 270 275 284 289 293 298 298 304 302 308 309 308 306 304 303
18 18 12 20 20 17 11 10 28 39 70 99 131 171 174 174 186 191 191 180 257 287 273 267 260 259 265 273 279 282 278 288 303 308 310 315 313 306 306 308 309 311 314
18 18 18 16 9 10 17 20 26 30 76 104 104 136 162 172 184 195 216 233 250 280 274 311 315 307 298 295 296 294 293 293 306 311 329 335 328 319 314 311 309 313 314
21 23 21 21 18 13 14 34 37 43 67 73 83 124 149 160 171 163 178 220 252 277 299 333 339 332 315 310 313 316 314 310 322 319 332 334 333 330 325 318 318 317 317
17 17 18 17 18 19 20 32 42 48 51 54 71 112 131 138 140 114 146 253 327 328 323 325 321 314 307 325 323 323 317 321 333 332 329 330 331 332 330 331 327 325 325
16 17 21 23 23 24 24 27 37 43 42 39 46 66 83 98 93 80 67 350 341 332 321 318 312 300 303 335 351 341 334 331 337 339 334 332 329 331 332 336 338 333 333
20 19 21 23 24 25 29 29 32 34 33 27 27 48 55 68 63 57 51 355 346 340 322 321 330 313 319 339 349 351 355 349 350 348 344 342 337 337 337 335 338 336 337
24 20 24 26 26 25 29 38 38 33 31 33 28 34 39 46 64 54 43 4 4 8 358 2 354 340 349 1 357 353 355 357 356 355 355 352 348 342 335 332 332 333 335
19 20 23 20 21 19 23 36 38 37 35 28 21 19 25 29 30 354 359 8 14 19 21 11 1 3 7 3 1 358 356 353 352 350 346 341 336 333 332 330 328 328 332
13 13 15 14 16 21 26 27 27 24 25 25 19 9 11 14 15 5 6 6 1 1 10 7 6 5 359 351 348 350 351 352 348 342 341 339 336 332 328 325 324 327 330
13 11 12 13 16 21 21 19 18 17 16 15 14 4 359 356 2 9 9 4 352 352 354 353 354 349 349 345 342 347 346 342 343 340 339 338 335 332 330 326 325 326 327
9 6 5 4 7 13 14 13 12 15 17 15 8 6 0 357 357 2 359 351 341 336 342 345 343 340 343 342 343 343 338 336 339 336 333 333 332 329 331 330 329 328 329
1 1 358 356 360 7 9 9 16 16 15 16 12 6 0 351 349 352 342 331 326 327 330 335 338 338 337 338 340 340 340 339 335 330 329 329 329 325 326 330 332 332 332
354 355 352 351 354 359 4 7 11 10 8 8 6 3 358 346 334 334 333 328 324 323 329 335 332 331 331 331 332 335 337 336 331 325 321 322 326 325 324 325 328 328 329
345 347 345 345 347 349 352 358 359 359 2 360 357 356 352 345 335 332 334 330 325 322 326 325 324 326 325 325 323 325 326 325 326 320 316 318 322 322 316 318 327 329 330
336 337 339 337 340 341 342 344 347 346 350 349 346 344 340 340 335 326 325 329 328 322 319 318 320 322 321 319 317 318 318 319 321 317 316 315 316 316 314 314 321 326 326
327 326 328 328 330 332 330 334 339 338 336 338 338 338 335 334 331 330 329 327 324 321 318 317 316 315 314 315 317 318 319 318 317 317 313 315 315 315 317 317 319 321 323
320 317 319 322 323 324 324 324 327 327 326 329 330 327 328 329 328 328 326 322 322 321 320 317 313 311 310 310 314 316 315 317 317 317 315 310 310 313 317 321 319 318 321
316 316 314 314 316 319 320 320 319 318 316 316 318 318 316 320 322 322 321 322 320 318 318 318 314 311 310 311 312 312 313 316 317 319 321 320 317 321 322 324 324 323 321
Height
5883 5883 5883 5883 5883 5883 5882 5882 5882 5881 5881 5880 5880 5879 5879 5879 5880 5879 5880 5882 5883 5885 5886 5887 5888 5888 5888 5889 5889 5889 5889 5890 5890 5890 5890 5890 5890 5890 5891 5890 5890 5890 5890
5884 5884 5884 5883 5883 5883 5883 5882 5882 5881 5881 5880 5879 5879 5879 5879 5880 5880 5881 5883 5884 5885 5886 5887 5887 5888 5888 5889 5889 5889 5889 5890 5890 5890 5890 5890 5890 5890 5890 5890 5890 5889 5889
5885 5885 5884 5884 5884 5883 5883 5882 5882 5881 5881 5880 5879 5879 5879 5880 5880 5881 5882 5883 5884 5885 5886 5886 5887 5888 5888 5888 5888 5889 5889 5889 5889 5889 5889 5889 5889 5889 5889 5889 5889 5889 5888
5886 5886 5885 5884 5884 5884 5883 5883 5882 5881 5880 5880 5879 5879 5880 5880 5881 5881 5882 5883 5884 5885 5885 5886 5887 5887 5888 5888 5888 5888 5888 5889 5888 5888 5888 5888 5888 5888 5888 5888 5888 5888 5888
5887 5886 5886 5885 5885 5884 5883 5883 5882 5881 5880 5880 5880 5880 5881 5881 5881 5882 5883 5883 5884 5885 5885 5886 5886 5887 5887 5887 5887 5888 5888 5888 5888 5888 5888 5888 5888 5887 5887 5887 5887 5886 5886
5887 5887 5886 5886 5885 5884 5884 5883 5882 5881 5880 5880 5880 5880 5881 5882 5882 5883 5884 5884 5884 5885 5886 5886 5886 5887 5887 5887 5887 5887 5887 5887 5887 5887 5888 5887 5887 5886 5886 5886 5886 5885 5885
5888 5887 5886 5886 5885 5885 5884 5883 5882 5881 5881 5880 5880 5881 5882 5882 5883 5884 5884 5885 5885 5885 5885 5885 5886 5886 5886 5887 5887 5887 5887 5887 5887 5887 5887 5887 5886 5886 5885 5885 5884 5884 5884
5889 5888 5887 5887 5886 5885 5884 5883 5881 5881 5881 5880 5880 5881 5882 5883 5884 5884 5885 5886 5886 5886 5886 5886 5886 5886 5886 5886 5886 5886 5886 5886 5886 5886 5886 5886 5885 5885 5884 5884 5884 5883 5883
5890 5889 5888 5887 5886 5885 5884 5883 5882 5881 5881 5881 5881 5882 5883 5884 5884 5885 5885 5886 5886 5886 5886 5886 5886 5886 5886 5886 5886 5886 5886 5886 5886 5886 5885 5885 5884 5884 5883 5883 5882 5882 5881
5891 5890 5889 5888 5887 5886 5885 5884 5883 5882 5881 5882 5882 5883 5884 5884 5885 5886 5886 5886 5886 5886 5886 5886 5886 5886 5886 5886 5885 5885 5885 5885 5885 5885 5885 5884 5883 5883 5882 5882 5881 5881 5880
5892 5891 5890 5889 5888 5887 5885 5884 5884 5883 5883 5883 5884 5884 5884 5885 5886 5886 5886 5886 5887 5887 5887 5887 5886 5886 5886 5885 5885 5885 5884 5884 5884 5884 5884 5883 5883 5882 5881 5881 5880 5879 5878
5893 5892 5891 5890 5889 5888 5886 5884 5885 5885 5885 5885 5885 5885 5885 5886 5886 5887 5887 5887 5887 5887 5887 5887 5887 5886 5885 5885 5884 5884 5884 5883 5884 5883 5883 5882 5882 5881 5880 5880 5879 5878 5877
5895 5894 5892 5891 5890 5889 5888 5887 5887 5886 5886 5886 5886 5887 5887 5887 5887 5887 5887 5887 5887 5887 5887 5887 5886 5886 5886 5885 5885 5884 5884 5883 5883 5883 5882 5881 5881 5880 5880 5879 5878 5877 5876
5896 5895 5894 5892 5891 5890 5889 5889 5888 5888 5888 5887 5887 5887 5887 5888 5888 5888 5888 5888 5887 5887 5887 5887 5886 5886 5886 5885 5885 5884 5884 5883 5883 5882 5881 5881 5880 5880 5879 5878 5877 5876 5875
5898 5896 5895 5894 5892 5891 5890 5890 5889 5889 5888 5888 5888 5888 5888 5888 5888 5888 5888 5888 5888 5887 5887 5887 5887 5886 5886 5885 5885 5884 5883 5883 5882 5882 5881 5880 5880 5879 5878 5877 5876 5875 5874
5899 5898 5897 5895 5894 5893 5892 5891 5890 5890 5889 5889 5889 5889 5888 5889 5889 5889 5888 5889 5888 5888 5888 5887 5887 5886 5886 5885 5884 5884 5883 5882 5881 5881 5880 5879 5879 5878 5877 5876 5875 5874 5873
5901 5899 5898 5897 5896 5894 5894 5893 5891 5891 5890 5890 5890 5889 5889 5889 5889 5889 5889 5889 5889 5888 5888 5887 5887 5887 5886 5885 5884 5883 5882 5882 5881 5880 5879 5879 5878 5877 5876 5875 5874 5873 5872
5902 5901 5900 5898 5897 5896 5895 5894 5892 5892 5891 5891 5890 5890 5890 5890 5889 5889 5889 5889 5889 5888 5888 5888 5887 5887 5886 5885 5884 5883 5882 5881 5880 5879 5878 5878 5877 5876 5875 5873 5872 5871 5870
5903 5902 5901 5900 5898 5897 5896 5895 5894 5893 5892 5892 5891 5890 5890 5890 5890 5890 5890 5889 5889 5889 5889 5888 5887 5886 5885 5885 5884 5883 5882 5880 5879 5879 5878 5877 5876 5875 5873 5872 5871 5870 5869
5903 5902 5901 5901 5900 5898 5898 5897 5895 5894 5893 5892 5892 5891 5891 5890 5890 5890 5890 5889 5889 5889 5888 5887 5887 5886 5885 5884 5883 5882 5881 5879 5878 5878 5877 5876 5875 5873 5872 5871 5870 5869 5867
5904 5903 5902 5901 5900 5899 5898 5897 5896 5895 5894 5893 5892 5892 5891 5891 5890 5890 5890 5889 5889 5888 5888 5887 5886 5885 5885 5884 5883 5881 5879 5878 5877 5876 5875 5874 5873 5872 5871 5870 5869 5867 5866
5904 5903 5902 5902 5901 5900 5899 5898 5897 5896 5895 5894 5893 5892 5892 5891 5890 5890 5890 5889 5888 5888 5887 5886 5886 5885 5884 5883 5882 5881 5880 5878 5876 5875 5874 5873 5871 5870 5869 5868 5867 5866 5864
5904 5903 5902 5902 5901 5900 5899 5898 5897 5896 5895 5894 5893 5892 5891 5891 5890 5890 5889 5889 5888 5887 5886 5885 5885 5884 5883 5881 5880 5880 5878 5877 5875 5873 5872 5871 5869 5868 5867 5866 5865 5864 5863
5904 5903 5902 5901 5900 5899 5899 5898 5897 5896 5895 5894 5893 5892 5891 5890 5890 5889 5888 5888 5887 5886 5885 5884 5883 5882 5881 5880 5879 5877 5876 5874 5873 5872 5870 5869 5867 5866 5865 5864 5863 5862 5861
5902 5902 5901 5900 5899 5899 5898 5897 5896 5895 5894 5893 5892 5891 5890 5889 5889 5888 5887 5887 5886 5885 5884 5883 5881 5880 5879 5878 5877 5876 5874 5872 5871 5870 5868 5867 5866 5864 5863 5862 5861 5859 5858
5901 5900 5899 5899 5898 5898 5897 5896 5895 5894 5893 5892 5891 5890 5889 5888 5888 5887 5886 5885 5884 5883 5882 5881 5879 5878 5877 5876 5875 5873 5872 5870 5869 5867 5866 5865 5864 5862 5861 5860 5858 5857 5855